Tiempo cada hora Cedar Falls

Hoy, 20 Abril, Martes

Tiempo Temperatura Precipitaciones Viento Presión Humedad
00:00 -1°C° 0 mm 2 mps 739 mmHg 65%
01:00 -1°C° 0 mm 2 mps 739 mmHg 65%
02:00 -1°C° 0 mm 3 mps 739 mmHg 64%
03:00 -1°C° 0 mm 3 mps 739 mmHg 63%
04:00 -1°C° 0 mm 3 mps 739 mmHg 63%
05:00 -1°C° 0 mm 3 mps 739 mmHg 63%
06:00 -1°C° 0 mm 2 mps 739 mmHg 63%
07:00 0°C° 0 mm 3 mps 739 mmHg 56%
08:00 +1°C° 0 mm 3 mps 740 mmHg 49%
09:00 +1°C° 0 mm 4 mps 740 mmHg 42%
10:00 +3°C° 0 mm 4 mps 740 mmHg 39%
11:00 +4°C° 0 mm 4 mps 739 mmHg 36%
12:00 +5°C° 0 mm 4 mps 739 mmHg 33%
13:00 +5°C° 0 mm 4 mps 739 mmHg 34%
14:00 +5°C° 0 mm 5 mps 739 mmHg 35%
15:00 +5°C° 0 mm 5 mps 738 mmHg 36%
16:00 +3°C° 0 mm 5 mps 738 mmHg 39%
17:00 +3°C° 0 mm 5 mps 738 mmHg 41%
18:00 +3°C° 0 mm 5 mps 739 mmHg 43%
19:00 +3°C° 0 mm 4 mps 739 mmHg 47%
20:00 +1°C° 0 mm 3 mps 739 mmHg 51%
21:00 0°C° 0 mm 3 mps 739 mmHg 55%
22:00 0°C° 0 mm 3 mps 740 mmHg 58%
23:00 -1°C° 0 mm 3 mps 740 mmHg 60%

Mañana, 21 Abril, Miércoles

Tiempo Temperatura Precipitaciones Viento Presión Humedad
00:00 -1°C° 0 mm 3 mps 740 mmHg 62%
01:00 -2°C° 0 mm 3 mps 740 mmHg 63%
02:00 -2°C° 0 mm 2 mps 740 mmHg 64%
03:00 -2°C° 0 mm 2 mps 740 mmHg 65%
04:00 -2°C° 0 mm 2 mps 740 mmHg 64%
05:00 -2°C° 0 mm 2 mps 740 mmHg 63%
06:00 -1°C° 0 mm 2 mps 740 mmHg 62%
07:00 0°C° 0 mm 3 mps 741 mmHg 54%
08:00 +1°C° 0 mm 4 mps 741 mmHg 47%
09:00 +2°C° 0 mm 5 mps 741 mmHg 40%
10:00 +3°C° 0 mm 5 mps 741 mmHg 37%
11:00 +5°C° 0 mm 5 mps 741 mmHg 35%
12:00 +4°C° 0 mm 6 mps 741 mmHg 32%
13:00 +5°C° 0 mm 6 mps 740 mmHg 32%
14:00 +5°C° 0 mm 6 mps 740 mmHg 32%
15:00 +5°C° 0 mm 6 mps 740 mmHg 32%
16:00 +5°C° 0 mm 5 mps 740 mmHg 35%
17:00 +5°C° 0 mm 5 mps 740 mmHg 37%
18:00 +4°C° 0 mm 4 mps 740 mmHg 40%
19:00 +3°C° 0 mm 3 mps 740 mmHg 44%
20:00 +3°C° 0 mm 2 mps 740 mmHg 48%
21:00 +2°C° 0 mm 1 mps 740 mmHg 52%
22:00 +2°C° 0 mm 1 mps 740 mmHg 52%
23:00 +2°C° 0 mm 1 mps 740 mmHg 52%

Pasado mañana, 22 Abril, Jueves

Tiempo Temperatura Precipitaciones Viento Presión Humedad
00:00 +2°C° 0 mm 1 mps 740 mmHg 52%
01:00 +2°C° 0 mm 1 mps 740 mmHg 55%
02:00 +1°C° 0 mm 1 mps 740 mmHg 57%
03:00 -1°C° 0 mm 2 mps 740 mmHg 60%
04:00 +1°C° 0 mm 1 mps 740 mmHg 62%
05:00 +1°C° 0 mm 1 mps 741 mmHg 63%
06:00 +1°C° 0 mm 1 mps 741 mmHg 65%
07:00 +2°C° 0 mm 2 mps 741 mmHg 57%
08:00 +5°C° 0 mm 2 mps 741 mmHg 49%
09:00 +7°C° 0 mm 2 mps 741 mmHg 41%
10:00 +8°C° 0 mm 3 mps 741 mmHg 40%
11:00 +9°C° 0 mm 3 mps 741 mmHg 38%
12:00 +11°C° 0 mm 3 mps 741 mmHg 37%
13:00 +11°C° 0 mm 3 mps 740 mmHg 36%
14:00 +12°C° 0 mm 4 mps 739 mmHg 35%
15:00 +13°C° 0 mm 4 mps 739 mmHg 34%
16:00 +12°C° 0 mm 4 mps 739 mmHg 38%
17:00 +11°C° 0 mm 3 mps 738 mmHg 43%
18:00 +11°C° 0 mm 3 mps 738 mmHg 47%
19:00 +10°C° 0 mm 3 mps 738 mmHg 52%
20:00 +8°C° 0 mm 3 mps 738 mmHg 58%
21:00 +7°C° 0 mm 3 mps 738 mmHg 63%
22:00 +7°C° 0 mm 3 mps 738 mmHg 66%
23:00 +7°C° 0 mm 3 mps 738 mmHg 70%

23 Abril, Viernes

Tiempo Temperatura Precipitaciones Viento Presión Humedad
00:00 +7°C° 0 mm 3 mps 738 mmHg 73%
01:00 +5°C° 0 mm 3 mps 738 mmHg 74%
02:00 +5°C° 0 mm 3 mps 738 mmHg 75%
03:00 +5°C° 0 mm 3 mps 738 mmHg 77%
04:00 +5°C° 0.3 mm 4 mps 737 mmHg 81%
05:00 +5°C° 0.3 mm 4 mps 737 mmHg 85%
06:00 +5°C° 0.3 mm 4 mps 737 mmHg 89%
07:00 +5°C° 0.2 mm 4 mps 736 mmHg 90%
08:00 +5°C° 0.2 mm 4 mps 736 mmHg 91%
09:00 +5°C° 0.2 mm 4 mps 736 mmHg 92%
10:00 +5°C° 0 mm 5 mps 736 mmHg 92%
11:00 +6°C° 0 mm 5 mps 735 mmHg 92%
12:00 +6°C° 0 mm 5 mps 735 mmHg 92%
13:00 +6°C° 0 mm 4 mps 735 mmHg 92%
14:00 +6°C° 0 mm 4 mps 734 mmHg 91%
15:00 +7°C° 0 mm 4 mps 734 mmHg 91%
16:00 +7°C° 0 mm 4 mps 734 mmHg 92%
17:00 +8°C° 0 mm 3 mps 734 mmHg 93%
18:00 +8°C° 0 mm 3 mps 734 mmHg 93%
19:00 +8°C° 0 mm 3 mps 734 mmHg 94%
20:00 +7°C° 0 mm 2 mps 734 mmHg 96%
21:00 +7°C° 0 mm 2 mps 734 mmHg 97%
22:00 +7°C° 0 mm 2 mps 734 mmHg 97%
23:00 +7°C° 0 mm 2 mps 734 mmHg 97%

24 Abril, Sábado

Tiempo Temperatura Precipitaciones Viento Presión Humedad
00:00 +7°C° 0 mm 2 mps 734 mmHg 98%
01:00 +7°C° 0 mm 2 mps 734 mmHg 97%
02:00 +7°C° 0 mm 2 mps 734 mmHg 97%
03:00 +7°C° 0 mm 2 mps 733 mmHg 96%
04:00 +7°C° 0 mm 2 mps 734 mmHg 96%
05:00 +6°C° 0 mm 2 mps 734 mmHg 96%
06:00 +6°C° 0 mm 2 mps 734 mmHg 96%
07:00 +5°C° 0 mm 3 mps 734 mmHg 92%
08:00 +5°C° 0 mm 4 mps 735 mmHg 89%
09:00 +4°C° 0 mm 6 mps 735 mmHg 85%
10:00 +5°C° 0 mm 6 mps 735 mmHg 77%
11:00 +7°C° 0 mm 6 mps 735 mmHg 69%
12:00 +8°C° 0 mm 7 mps 736 mmHg 61%
13:00 +9°C° 0 mm 7 mps 736 mmHg 56%
14:00 +9°C° 0 mm 7 mps 736 mmHg 50%
15:00 +10°C° 0 mm 7 mps 736 mmHg 45%
16:00 +9°C° 0 mm 6 mps 736 mmHg 46%
17:00 +9°C° 0 mm 6 mps 736 mmHg 47%
18:00 +8°C° 0 mm 5 mps 736 mmHg 47%
19:00 +6°C° 0 mm 5 mps 737 mmHg 51%
20:00 +5°C° 0 mm 4 mps 738 mmHg 56%
21:00 +3°C° 0 mm 3 mps 739 mmHg 60%
22:00 +3°C° 0 mm 3 mps 739 mmHg 61%
23:00 +3°C° 0 mm 2 mps 739 mmHg 62%

25 Abril, Domingo

Tiempo Temperatura Precipitaciones Viento Presión Humedad
00:00 +3°C° 0 mm 2 mps 740 mmHg 62%
01:00 +2°C° 0 mm 2 mps 740 mmHg 63%
02:00 +2°C° 0 mm 2 mps 740 mmHg 64%
03:00 +1°C° 0 mm 2 mps 740 mmHg 64%
04:00 +1°C° 0 mm 2 mps 740 mmHg 65%
05:00 +1°C° 0 mm 2 mps 741 mmHg 65%
06:00 +2°C° 0 mm 1 mps 741 mmHg 66%
07:00 +3°C° 0 mm 2 mps 741 mmHg 61%
08:00 +4°C° 0 mm 3 mps 741 mmHg 56%
09:00 +6°C° 0 mm 4 mps 741 mmHg 51%
10:00 +6°C° 0.1 mm 4 mps 741 mmHg 54%
11:00 +6°C° 0.1 mm 4 mps 741 mmHg 57%
12:00 +5°C° 0.1 mm 3 mps 741 mmHg 60%
13:00 +6°C° 0 mm 4 mps 740 mmHg 60%
14:00 +7°C° 0 mm 5 mps 739 mmHg 59%
15:00 +7°C° 0 mm 6 mps 738 mmHg 59%
16:00 +7°C° 0 mm 6 mps 738 mmHg 62%
17:00 +7°C° 0 mm 6 mps 738 mmHg 64%
18:00 +7°C° 0 mm 5 mps 737 mmHg 67%
19:00 +7°C° 0 mm 6 mps 737 mmHg 68%
20:00 +7°C° 0 mm 6 mps 737 mmHg 68%
21:00 +5°C° 0 mm 7 mps 736 mmHg 69%
22:00 +6°C° 0 mm 7 mps 736 mmHg 69%
23:00 +6°C° 0 mm 7 mps 735 mmHg 69%
Mostrar más

Necesitamos Su Consentimiento

Meteoprog y nuestros Proveedores de Servicios pueden almacenar y acceder a sus datos personales como cookies, identificadores de dispositivo u otras tecnologías similares de su dispositivo y procesar dichos datos para personalizar contenido y anuncios, además de ofrecer funciones de redes sociales y analizar el tráfico.

  • Almacenar y/o acceder a información en su dispositivo

    Se puede almacenar o acceder a cookies, identificadores de dispositivo u otra información de su dispositivo para los fines anteriormente indicados.

  • Anuncios y contenido personalizados, medición de anuncios y contenido, percepciones del público, y desarrollo de productos

    Los anuncios y el contenido pueden personalizarse en base a su perfil. Se pueden añadir más datos para personalizar mejor los anuncios y contenidos. Se puede medir el rendimiento de los anuncios y contenidos. Se puede obtener la percepción sobre el público que ha visto los anuncios y contenidos. Dichos datos pueden usarse para desarrollar o mejorar la experiencia del usuario, sistemas y software.

Al hacer clic en ‘Estoy De Acuerdo’ usted permitirá el uso de las cookies, identificadores de dispositivo, balizas web u otras tecnologías similares indicadas. Su configuración puede cambiarse desde el navegador de su dispositivo.

Para ciertos fines, los intereses legítimos pueden ser considerados por encima del consentimiento. Puede leer más sobre ello en nuestra Política de Privacidad y Cookies.